| time (UTC) | temp F | wind direction | speed MPH | gust MPH | rain 1hr in | rain 24hr in | rain mn in | humidity % | barometer mb |
| 20260510011349 | 57 | 150 | 5.0 | 7.0 | 0.00 | 0.00 | 0.00 | 73 | 1004.0 |
| 20260510010849 | 57 | 151 | 6.0 | 12.0 | 0.00 | 0.00 | 0.00 | 73 | 1005.0 |
| 20260510010349 | 57 | 151 | 5.0 | 9.0 | 0.00 | 0.00 | 0.00 | 74 | 1005.0 |
| 20260510005850 | 57 | 164 | 3.0 | 5.0 | 0.00 | 0.00 | 0.00 | 74 | 1005.0 |
| 20260510005349 | 57 | 160 | 4.0 | 5.0 | 0.00 | 0.00 | 0.00 | 73 | 1005.0 |
| 20260510004849 | 57 | 146 | 4.0 | 6.0 | 0.00 | 0.00 | 0.00 | 74 | 1004.0 |
| 20260510004349 | 57 | 155 | 5.0 | 9.0 | 0.00 | 0.00 | 0.00 | 74 | 1004.0 |
| 20260510003849 | 57 | 155 | 4.0 | 4.0 | 0.00 | 0.00 | 0.00 | 73 | 1005.0 |
| 20260510003349 | 57 | 150 | 4.0 | 6.0 | 0.00 | 0.00 | 0.00 | 73 | 1005.0 |
| 20260510002849 | 57 | 152 | 4.0 | 5.0 | 0.00 | 0.00 | 0.00 | 73 | 1004.0 |
| 20260510002349 | 58 | 153 | 3.0 | 4.0 | 0.00 | 0.00 | 0.00 | 73 | 1005.0 |
| 20260510001849 | 58 | 162 | 3.0 | 4.0 | 0.00 | 0.00 | 0.00 | 72 | 1004.0 |
| 20260510001349 | 58 | 146 | 4.0 | 8.0 | 0.00 | 0.00 | 0.00 | 72 | 1004.0 |
| 20260510000849 | 58 | 150 | 4.0 | 9.0 | 0.00 | 0.00 | 0.00 | 72 | 1005.0 |
| 20260510000349 | 58 | 154 | 3.0 | 5.0 | 0.00 | 0.00 | 0.00 | 72 | 1005.0 |
| 20260509235849 | 58 | 150 | 3.0 | 4.0 | 0.00 | 0.00 | 0.00 | 72 | 1005.0 |
| 20260509235349 | 58 | 159 | 4.0 | 6.0 | 0.00 | 0.00 | 0.00 | 71 | 1004.0 |
| 20260509234849 | 59 | 157 | 4.0 | 6.0 | 0.00 | 0.00 | 0.00 | 71 | 1005.0 |
| 20260509234349 | 59 | 150 | 4.0 | 9.0 | 0.00 | 0.00 | 0.00 | 70 | 1005.0 |
| 20260509233848 | 59 | 171 | 4.0 | 6.0 | 0.00 | 0.00 | 0.00 | 70 | 1005.0 |
| 20260509233350 | 59 | 158 | 5.0 | 8.0 | 0.00 | 0.00 | 0.00 | 69 | 1005.0 |
| 20260509232850 | 60 | 153 | 5.0 | 8.0 | 0.00 | 0.00 | 0.00 | 69 | 1005.0 |
| 20260509232349 | 60 | 155 | 5.0 | 7.0 | 0.00 | 0.00 | 0.00 | 68 | 1005.0 |
| 20260509231849 | 60 | 161 | 4.0 | 6.0 | 0.00 | 0.00 | 0.00 | 68 | 1005.0 |
| 20260509231350 | 60 | 169 | 4.0 | 5.0 | 0.00 | 0.00 | 0.00 | 68 | 1005.0 |
| 20260509230849 | 60 | 161 | 5.0 | 7.0 | 0.00 | 0.00 | 0.00 | 67 | 1005.0 |
| 20260509230350 | 61 | 157 | 4.0 | 6.0 | 0.00 | 0.00 | 0.00 | 66 | 1005.0 |
| 20260509225849 | 61 | 164 | 5.0 | 7.0 | 0.00 | 0.00 | 0.00 | 66 | 1005.0 |
| 20260509225349 | 61 | 166 | 4.0 | 6.0 | 0.00 | 0.00 | 0.00 | 66 | 1005.0 |
| 20260509224849 | 61 | 164 | 3.0 | 5.0 | 0.00 | 0.00 | 0.00 | 65 | 1005.0 |
| 20260509224349 | 61 | 187 | 4.0 | 6.0 | 0.00 | 0.00 | 0.00 | 65 | 1005.0 |
| 20260509223849 | 61 | 146 | 5.0 | 6.0 | 0.00 | 0.00 | 0.00 | 65 | 1005.0 |
| 20260509223349 | 62 | 156 | 5.0 | 8.0 | 0.00 | 0.00 | 0.00 | 65 | 1005.0 |
| 20260509222849 | 62 | 159 | 7.0 | 10.0 | 0.00 | 0.00 | 0.00 | 64 | 1005.0 |
| 20260509222349 | 62 | 146 | 5.0 | 6.0 | 0.00 | 0.00 | 0.00 | 63 | 1005.0 |
| 20260509221849 | 62 | 165 | 5.0 | 8.0 | 0.00 | 0.00 | 0.00 | 63 | 1005.0 |
| 20260509221349 | 62 | 182 | 4.0 | 6.0 | 0.00 | 0.00 | 0.00 | 63 | 1005.0 |
| 20260509220849 | 62 | 185 | 3.0 | 5.0 | 0.00 | 0.00 | 0.00 | 63 | 1005.0 |
| 20260509220349 | 63 | 163 | 6.0 | 9.0 | 0.00 | 0.00 | 0.00 | 62 | 1005.0 |
| 20260509215849 | 63 | 174 | 4.0 | 9.0 | 0.00 | 0.00 | 0.00 | 63 | 1005.0 |
| 20260509215349 | 63 | 152 | 4.0 | 5.0 | 0.00 | 0.00 | 0.00 | 62 | 1005.0 |
| 20260509214849 | 63 | 157 | 4.0 | 6.0 | 0.00 | 0.00 | 0.00 | 60 | 1005.0 |
| 20260509214349 | 63 | 171 | 4.0 | 6.0 | 0.00 | 0.00 | 0.00 | 60 | 1005.0 |
| 20260509213849 | 63 | 185 | 5.0 | 8.0 | 0.00 | 0.00 | 0.00 | 60 | 1005.0 |
| 20260509213349 | 63 | 199 | 3.0 | 7.0 | 0.00 | 0.00 | 0.00 | 60 | 1005.0 |
| 20260509212852 | 63 | 165 | 5.0 | 7.0 | 0.00 | 0.00 | 0.00 | 61 | 1005.0 |
| 20260509212349 | 63 | 191 | 4.0 | 7.0 | 0.00 | 0.00 | 0.00 | 58 | 1005.0 |
| 20260509211849 | 63 | 219 | 4.0 | 6.0 | 0.00 | 0.00 | 0.00 | 61 | 1005.0 |
| 20260509211350 | 63 | 151 | 6.0 | 8.0 | 0.00 | 0.00 | 0.00 | 61 | 1005.0 |
| 20260509210849 | 63 | 229 | 6.0 | 11.0 | 0.00 | 0.00 | 0.00 | 62 | 1005.0 |
| 20260509210349 | 63 | 198 | 3.0 | 4.0 | 0.00 | 0.00 | 0.00 | 62 | 1005.0 |
| 20260509205849 | 62 | 160 | 2.0 | 4.0 | 0.00 | 0.00 | 0.00 | 63 | 1005.0 |
| 20260509205349 | 63 | 159 | 5.0 | 7.0 | 0.00 | 0.00 | 0.00 | 62 | 1005.0 |
| 20260509204849 | 63 | 149 | 6.0 | 8.0 | 0.00 | 0.00 | 0.00 | 61 | 1005.0 |
| 20260509204349 | 62 | 175 | 4.0 | 6.0 | 0.00 | 0.00 | 0.00 | 62 | 1005.0 |
| 20260509203849 | 62 | 223 | 5.0 | 9.0 | 0.00 | 0.00 | 0.00 | 62 | 1005.0 |
| 20260509203349 | 62 | 155 | 6.0 | 8.0 | 0.00 | 0.00 | 0.00 | 62 | 1005.0 |
| 20260509202849 | 62 | 152 | 4.0 | 6.0 | 0.00 | 0.00 | 0.00 | 64 | 1005.0 |
| 20260509202349 | 61 | 147 | 6.0 | 8.0 | 0.00 | 0.00 | 0.00 | 65 | 1005.0 |
| 20260509201849 | 61 | 143 | 5.0 | 7.0 | 0.00 | 0.00 | 0.00 | 64 | 1005.0 |
| 20260509201349 | 62 | 163 | 5.0 | 8.0 | 0.00 | 0.00 | 0.00 | 64 | 1005.0 |
| 20260509200850 | 62 | 167 | 4.0 | 7.0 | 0.00 | 0.00 | 0.00 | 63 | 1005.0 |
| 20260509200349 | 62 | 176 | 5.0 | 7.0 | 0.00 | 0.00 | 0.00 | 63 | 1006.0 |
| 20260509195849 | 62 | 163 | 6.0 | 8.0 | 0.00 | 0.00 | 0.00 | 63 | 1006.0 |
| 20260509195350 | 62 | 167 | 6.0 | 8.0 | 0.00 | 0.00 | 0.00 | 63 | 1006.0 |
| 20260509194849 | 62 | 163 | 4.0 | 6.0 | 0.00 | 0.00 | 0.00 | 64 | 1006.0 |
| 20260509194349 | 62 | 162 | 5.0 | 8.0 | 0.00 | 0.00 | 0.00 | 63 | 1006.0 |
| 20260509193849 | 62 | 206 | 4.0 | 7.0 | 0.00 | 0.00 | 0.00 | 63 | 1006.0 |
| 20260509193349 | 62 | 157 | 4.0 | 6.0 | 0.00 | 0.00 | 0.00 | 63 | 1006.0 |
| 20260509192849 | 61 | 148 | 4.0 | 6.0 | 0.00 | 0.00 | 0.00 | 63 | 1006.0 |
| 20260509192349 | 61 | 176 | 4.0 | 5.0 | 0.00 | 0.00 | 0.00 | 62 | 1006.0 |
| 20260509191849 | 60 | 194 | 3.0 | 6.0 | 0.00 | 0.00 | 0.00 | 64 | 1006.0 |
| 20260509191349 | 60 | 184 | 2.0 | 4.0 | 0.00 | 0.00 | 0.00 | 66 | 1006.0 |
| 20260509190849 | 60 | 157 | 6.0 | 7.0 | 0.00 | 0.00 | 0.00 | 64 | 1006.0 |
| 20260509190349 | 61 | 166 | 4.0 | 7.0 | 0.00 | 0.00 | 0.00 | 64 | 1006.0 |
| 20260509185849 | 61 | 171 | 5.0 | 8.0 | 0.00 | 0.00 | 0.00 | 62 | 1006.0 |
| 20260509185352 | 60 | 163 | 6.0 | 9.0 | 0.00 | 0.00 | 0.00 | 64 | 1006.0 |
| 20260509184850 | 60 | 177 | 5.0 | 7.0 | 0.00 | 0.00 | 0.00 | 65 | 1007.0 |
| 20260509184349 | 61 | 177 | 6.0 | 9.0 | 0.00 | 0.00 | 0.00 | 63 | 1007.0 |
| 20260509183849 | 60 | 202 | 3.0 | 5.0 | 0.00 | 0.00 | 0.00 | 65 | 1007.0 |
| 20260509183350 | 60 | 167 | 5.0 | 7.0 | 0.00 | 0.00 | 0.00 | 64 | 1007.0 |
| 20260509182850 | 61 | 145 | 5.0 | 7.0 | 0.00 | 0.00 | 0.00 | 63 | 1007.0 |
| 20260509182349 | 61 | 159 | 6.0 | 8.0 | 0.00 | 0.00 | 0.00 | 62 | 1007.0 |
| 20260509181849 | 62 | 159 | 4.0 | 8.0 | 0.00 | 0.00 | 0.00 | 62 | 1006.0 |
| 20260509181349 | 62 | 173 | 4.0 | 6.0 | 0.00 | 0.00 | 0.00 | 62 | 1006.0 |
| 20260509180849 | 62 | 211 | 5.0 | 9.0 | 0.00 | 0.00 | 0.00 | 61 | 1006.0 |
| 20260509180350 | 62 | 184 | 5.0 | 6.0 | 0.00 | 0.00 | 0.00 | 60 | 1006.0 |
| 20260509175850 | 62 | 179 | 5.0 | 6.0 | 0.00 | 0.00 | 0.00 | 60 | 1006.0 |
| 20260509175349 | 62 | 186 | 6.0 | 9.0 | 0.00 | 0.00 | 0.00 | 60 | 1006.0 |
| 20260509174849 | 62 | 184 | 4.0 | 8.0 | 0.00 | 0.00 | 0.00 | 58 | 1006.0 |
| 20260509174349 | 62 | 209 | 3.0 | 4.0 | 0.00 | 0.00 | 0.00 | 58 | 1006.0 |
| 20260509173849 | 62 | 178 | 4.0 | 6.0 | 0.00 | 0.00 | 0.00 | 61 | 1006.0 |
| 20260509173350 | 62 | 198 | 4.0 | 8.0 | 0.00 | 0.00 | 0.00 | 58 | 1006.0 |
| 20260509172850 | 61 | 173 | 5.0 | 10.0 | 0.00 | 0.00 | 0.00 | 58 | 1007.0 |
| 20260509172350 | 61 | 150 | 7.0 | 9.0 | 0.00 | 0.00 | 0.00 | 58 | 1007.0 |
| 20260509171849 | 60 | 157 | 4.0 | 6.0 | 0.00 | 0.00 | 0.00 | 60 | 1007.0 |
| 20260509171349 | 60 | 155 | 6.0 | 9.0 | 0.00 | 0.00 | 0.00 | 60 | 1007.0 |
| 20260509170849 | 60 | 168 | 4.0 | 5.0 | 0.00 | 0.00 | 0.00 | 59 | 1007.0 |
| 20260509170349 | 61 | 179 | 5.0 | 7.0 | 0.00 | 0.00 | 0.00 | 58 | 1007.0 |
| 20260509165849 | 61 | 195 | 3.0 | 4.0 | 0.00 | 0.00 | 0.00 | 58 | 1007.0 |
| 20260509165351 | 60 | 157 | 5.0 | 7.0 | 0.00 | 0.00 | 0.00 | 57 | 1007.0 |
| 20260509164849 | 61 | 153 | 4.0 | 6.0 | 0.00 | 0.00 | 0.00 | 56 | 1007.0 |
| 20260509164349 | 61 | 186 | 3.0 | 5.0 | 0.00 | 0.00 | 0.00 | 57 | 1007.0 |
| 20260509163849 | 60 | 134 | 2.0 | 3.0 | 0.00 | 0.00 | 0.00 | 60 | 1007.0 |
| 20260509163349 | 61 | 159 | 4.0 | 5.0 | 0.00 | 0.00 | 0.00 | 58 | 1007.0 |
| 20260509162849 | 61 | 194 | 5.0 | 6.0 | 0.00 | 0.00 | 0.00 | 58 | 1007.0 |
| 20260509162350 | 61 | 134 | 4.0 | 7.0 | 0.00 | 0.00 | 0.00 | 58 | 1007.0 |
| 20260509161849 | 60 | 153 | 4.0 | 6.0 | 0.00 | 0.00 | 0.00 | 60 | 1007.0 |
| 20260509161349 | 60 | 141 | 5.0 | 7.0 | 0.00 | 0.00 | 0.00 | 58 | 1007.0 |
| 20260509160849 | 60 | 157 | 2.0 | 4.0 | 0.00 | 0.00 | 0.00 | 60 | 1008.0 |
| 20260509160349 | 60 | 185 | 3.0 | 5.0 | 0.00 | 0.00 | 0.00 | 60 | 1008.0 |
| 20260509155849 | 60 | 169 | 5.0 | 8.0 | 0.00 | 0.00 | 0.00 | 61 | 1008.0 |
| 20260509155349 | 59 | 233 | 6.0 | 8.0 | 0.00 | 0.00 | 0.00 | 64 | 1008.0 |
| 20260509154849 | 58 | 195 | 3.0 | 5.0 | 0.00 | 0.00 | 0.00 | 63 | 1008.0 |
| 20260509154350 | 58 | 204 | 5.0 | 9.0 | 0.00 | 0.00 | 0.00 | 65 | 1008.0 |
| 20260509153849 | 58 | 239 | 6.0 | 8.0 | 0.00 | 0.00 | 0.00 | 64 | 1008.0 |
| 20260509153352 | 58 | 224 | 6.0 | 9.0 | 0.00 | 0.00 | 0.00 | 65 | 1008.0 |
| 20260509152849 | 58 | 235 | 5.0 | 8.0 | 0.00 | 0.00 | 0.00 | 64 | 1008.0 |
| 20260509152349 | 58 | 196 | 3.0 | 7.0 | 0.00 | 0.00 | 0.00 | 63 | 1008.0 |
| 20260509151849 | 58 | 163 | 4.0 | 7.0 | 0.00 | 0.00 | 0.00 | 63 | 1008.0 |
| 20260509151349 | 59 | 212 | 3.0 | 6.0 | 0.00 | 0.00 | 0.00 | 61 | 1008.0 |
| 20260509150849 | 58 | 230 | 4.0 | 7.0 | 0.00 | 0.00 | 0.00 | 63 | 1008.0 |
| 20260509150350 | 58 | 231 | 6.0 | 8.0 | 0.00 | 0.00 | 0.00 | 62 | 1008.0 |
| 20260509145849 | 58 | 150 | 4.0 | 4.0 | 0.00 | 0.00 | 0.00 | 61 | 1008.0 |
| 20260509145349 | 59 | 194 | 2.0 | 3.0 | 0.00 | 0.00 | 0.00 | 62 | 1008.0 |
| 20260509144849 | 59 | 145 | 4.0 | 5.0 | 0.00 | 0.00 | 0.00 | 59 | 1008.0 |
| 20260509144349 | 58 | 163 | 4.0 | 6.0 | 0.00 | 0.00 | 0.00 | 61 | 1008.0 |
| 20260509143849 | 58 | 173 | 4.0 | 8.0 | 0.00 | 0.00 | 0.00 | 60 | 1008.0 |
| 20260509143350 | 58 | 173 | 3.0 | 4.0 | 0.00 | 0.00 | 0.00 | 62 | 1008.0 |
| 20260509142850 | 58 | 159 | 5.0 | 8.0 | 0.00 | 0.00 | 0.00 | 60 | 1008.0 |
| 20260509142350 | 57 | 172 | 4.0 | 6.0 | 0.00 | 0.00 | 0.00 | 59 | 1008.0 |
| 20260509141849 | 57 | 163 | 4.0 | 7.0 | 0.00 | 0.00 | 0.00 | 61 | 1008.0 |
| 20260509141349 | 57 | 146 | 5.0 | 7.0 | 0.00 | 0.00 | 0.00 | 59 | 1008.0 |
| 20260509140849 | 57 | 195 | 4.0 | 5.0 | 0.00 | 0.00 | 0.00 | 59 | 1009.0 |
| 20260509140350 | 57 | 151 | 3.0 | 7.0 | 0.00 | 0.00 | 0.00 | 60 | 1009.0 |
| 20260509135849 | 56 | 154 | 4.0 | 5.0 | 0.00 | 0.00 | 0.00 | 62 | 1009.0 |
| 20260509135350 | 56 | 154 | 5.0 | 7.0 | 0.00 | 0.00 | 0.00 | 62 | 1009.0 |
| 20260509134850 | 56 | 178 | 4.0 | 5.0 | 0.00 | 0.00 | 0.00 | 62 | 1009.0 |
| 20260509134350 | 56 | 184 | 4.0 | 5.0 | 0.00 | 0.00 | 0.00 | 62 | 1009.0 |
| 20260509133849 | 56 | 162 | 6.0 | 8.0 | 0.00 | 0.00 | 0.00 | 62 | 1009.0 |
| 20260509133350 | 56 | 164 | 4.0 | 6.0 | 0.00 | 0.00 | 0.00 | 63 | 1009.0 |
| 20260509132849 | 56 | 153 | 4.0 | 5.0 | 0.00 | 0.00 | 0.00 | 63 | 1009.0 |
| 20260509132350 | 56 | 152 | 4.0 | 6.0 | 0.00 | 0.00 | 0.00 | 63 | 1009.0 |
| 20260509131849 | 56 | 147 | 5.0 | 6.0 | 0.00 | 0.00 | 0.00 | 61 | 1009.0 |
| 20260509131350 | 55 | 174 | 4.0 | 6.0 | 0.00 | 0.00 | 0.00 | 62 | 1009.0 |
| 20260509130849 | 55 | 140 | 6.0 | 9.0 | 0.00 | 0.00 | 0.00 | 62 | 1009.0 |
| 20260509130349 | 55 | 159 | 6.0 | 8.0 | 0.00 | 0.00 | 0.00 | 61 | 1009.0 |
| 20260509125850 | 55 | 155 | 4.0 | 5.0 | 0.00 | 0.00 | 0.00 | 61 | 1009.0 |
| 20260509125349 | 55 | 152 | 4.0 | 6.0 | 0.00 | 0.00 | 0.00 | 60 | 1009.0 |
| 20260509124849 | 55 | 158 | 3.0 | 4.0 | 0.00 | 0.00 | 0.00 | 60 | 1009.0 |
| 20260509124350 | 54 | 142 | 4.0 | 6.0 | 0.00 | 0.00 | 0.00 | 59 | 1009.0 |
| 20260509123849 | 54 | 162 | 4.0 | 5.0 | 0.00 | 0.00 | 0.00 | 58 | 1009.0 |
| 20260509123349 | 54 | 137 | 5.0 | 9.0 | 0.00 | 0.00 | 0.00 | 56 | 1009.0 |
| 20260509122850 | 54 | 147 | 4.0 | 5.0 | 0.00 | 0.00 | 0.00 | 56 | 1009.0 |
| 20260509122349 | 54 | 146 | 4.0 | 5.0 | 0.00 | 0.00 | 0.00 | 54 | 1009.0 |
| 20260509121849 | 53 | 149 | 5.0 | 6.0 | 0.00 | 0.00 | 0.00 | 53 | 1009.0 |
| 20260509121349 | 53 | 152 | 5.0 | 7.0 | 0.00 | 0.00 | 0.00 | 51 | 1009.0 |
| 20260509120849 | 53 | 139 | 5.0 | 7.0 | 0.00 | 0.00 | 0.00 | 50 | 1009.0 |
| 20260509120349 | 52 | 141 | 6.0 | 9.0 | 0.00 | 0.00 | 0.00 | 49 | 1009.0 |
| 20260509115854 | 52 | 131 | 6.0 | 9.0 | 0.00 | 0.00 | 0.00 | 50 | 1009.0 |
| 20260509115349 | 51 | 131 | 6.0 | 8.0 | 0.00 | 0.00 | 0.00 | 50 | 1009.0 |
| 20260509114849 | 51 | 131 | 4.0 | 7.0 | 0.00 | 0.00 | 0.00 | 51 | 1009.0 |
| 20260509114349 | 51 | 137 | 4.0 | 5.0 | 0.00 | 0.00 | 0.00 | 50 | 1009.0 |
| 20260509113849 | 51 | 142 | 3.0 | 4.0 | 0.00 | 0.00 | 0.00 | 51 | 1009.0 |
| 20260509113349 | 50 | 138 | 3.0 | 5.0 | 0.00 | 0.00 | 0.00 | 51 | 1009.0 |
| 20260509112851 | 50 | 144 | 3.0 | 5.0 | 0.00 | 0.00 | 0.00 | 50 | 1009.0 |
| 20260509112349 | 50 | 137 | 4.0 | 6.0 | 0.00 | 0.00 | 0.00 | 51 | 1009.0 |
| 20260509111849 | 49 | 151 | 3.0 | 4.0 | 0.00 | 0.00 | 0.00 | 51 | 1009.0 |
| 20260509111350 | 49 | 138 | 4.0 | 5.0 | 0.00 | 0.00 | 0.00 | 52 | 1009.0 |
| 20260509110850 | 48 | 144 | 4.0 | 5.0 | 0.00 | 0.00 | 0.00 | 53 | 1009.0 |
| 20260509110349 | 48 | 142 | 4.0 | 5.0 | 0.00 | 0.00 | 0.00 | 54 | 1009.0 |
| 20260509105849 | 48 | 128 | 4.0 | 6.0 | 0.00 | 0.00 | 0.00 | 54 | 1009.0 |
| 20260509105350 | 47 | 136 | 4.0 | 5.0 | 0.00 | 0.00 | 0.00 | 55 | 1009.0 |
| 20260509104849 | 46 | 132 | 4.0 | 7.0 | 0.00 | 0.00 | 0.00 | 56 | 1009.0 |
| 20260509104350 | 46 | 133 | 4.0 | 6.0 | 0.00 | 0.00 | 0.00 | 56 | 1009.0 |
| 20260509103849 | 46 | 121 | 4.0 | 7.0 | 0.00 | 0.00 | 0.00 | 58 | 1009.0 |
| 20260509103349 | 45 | 111 | 3.0 | 5.0 | 0.00 | 0.00 | 0.00 | 58 | 1009.0 |
| 20260509102849 | 45 | 99 | 4.0 | 6.0 | 0.00 | 0.00 | 0.00 | 58 | 1009.0 |
| 20260509102350 | 44 | 103 | 4.0 | 6.0 | 0.00 | 0.00 | 0.00 | 59 | 1009.0 |
| 20260509101849 | 44 | 104 | 3.0 | 5.0 | 0.00 | 0.00 | 0.00 | 59 | 1009.0 |
| 20260509101349 | 44 | 114 | 4.0 | 4.0 | 0.00 | 0.00 | 0.00 | 60 | 1009.0 |
| 20260509100850 | 43 | 118 | 4.0 | 5.0 | 0.00 | 0.00 | 0.00 | 59 | 1009.0 |
| 20260509100349 | 43 | 120 | 3.0 | 5.0 | 0.00 | 0.00 | 0.00 | 60 | 1009.0 |
| 20260509095849 | 43 | 123 | 4.0 | 5.0 | 0.00 | 0.00 | 0.00 | 60 | 1009.0 |
| 20260509095349 | 43 | 131 | 3.0 | 4.0 | 0.00 | 0.00 | 0.00 | 61 | 1009.0 |
| 20260509094850 | 43 | 128 | 2.0 | 4.0 | 0.00 | 0.00 | 0.00 | 61 | 1009.0 |
| 20260509094349 | 43 | 128 | 3.0 | 4.0 | 0.00 | 0.00 | 0.00 | 61 | 1009.0 |
| 20260509093850 | 43 | 130 | 3.0 | 4.0 | 0.00 | 0.00 | 0.00 | 60 | 1009.0 |
| 20260509093349 | 43 | 128 | 3.0 | 4.0 | 0.00 | 0.00 | 0.00 | 60 | 1009.0 |
| 20260509092849 | 43 | 120 | 4.0 | 4.0 | 0.00 | 0.00 | 0.00 | 60 | 1009.0 |
| 20260509092349 | 43 | 116 | 4.0 | 4.0 | 0.00 | 0.00 | 0.00 | 60 | 1009.0 |
| 20260509091849 | 43 | 109 | 3.0 | 4.0 | 0.00 | 0.00 | 0.00 | 60 | 1009.0 |
| 20260509091349 | 42 | 118 | 3.0 | 4.0 | 0.00 | 0.00 | 0.00 | 61 | 1009.0 |
| 20260509090850 | 42 | 125 | 2.0 | 3.0 | 0.00 | 0.00 | 0.00 | 61 | 1009.0 |
| 20260509090349 | 42 | 127 | 1.0 | 2.0 | 0.00 | 0.00 | 0.00 | 61 | 1009.0 |
| 20260509085849 | 42 | 135 | 2.0 | 4.0 | 0.00 | 0.00 | 0.00 | 62 | 1009.0 |
| 20260509085349 | 42 | 127 | 3.0 | 4.0 | 0.00 | 0.00 | 0.00 | 61 | 1009.0 |
| 20260509084849 | 43 | 128 | 3.0 | 4.0 | 0.00 | 0.00 | 0.00 | 61 | 1009.0 |
| 20260509084350 | 43 | 133 | 2.0 | 3.0 | 0.00 | 0.00 | 0.00 | 60 | 1009.0 |
| 20260509083849 | 43 | 148 | 2.0 | 4.0 | 0.00 | 0.00 | 0.00 | 60 | 1010.0 |
| 20260509083349 | 42 | 134 | 2.0 | 3.0 | 0.00 | 0.00 | 0.00 | 61 | 1010.0 |
| 20260509082849 | 42 | 133 | 2.0 | 4.0 | 0.00 | 0.00 | 0.00 | 62 | 1010.0 |
| 20260509082349 | 43 | 133 | 3.0 | 4.0 | 0.00 | 0.00 | 0.00 | 61 | 1010.0 |
| 20260509081849 | 43 | 130 | 3.0 | 4.0 | 0.00 | 0.00 | 0.00 | 61 | 1010.0 |
| 20260509081349 | 43 | 121 | 3.0 | 4.0 | 0.00 | 0.00 | 0.00 | 61 | 1010.0 |
| 20260509080849 | 43 | 116 | 3.0 | 4.0 | 0.00 | 0.00 | 0.00 | 60 | 1010.0 |
| 20260509080350 | 43 | 107 | 3.0 | 4.0 | 0.00 | 0.00 | 0.00 | 60 | 1010.0 |
| 20260509075850 | 43 | 117 | 2.0 | 2.0 | 0.00 | 0.00 | 0.00 | 61 | 1010.0 |
| 20260509075349 | 43 | 109 | 2.0 | 3.0 | 0.00 | 0.00 | 0.00 | 61 | 1010.0 |
| 20260509074849 | 43 | 119 | 3.0 | 4.0 | 0.00 | 0.00 | 0.00 | 61 | 1010.0 |
| 20260509074349 | 43 | 108 | 2.0 | 4.0 | 0.00 | 0.00 | 0.00 | 61 | 1010.0 |
| 20260509073849 | 43 | 119 | 1.0 | 2.0 | 0.00 | 0.00 | 0.00 | 61 | 1010.0 |
| 20260509073349 | 43 | 125 | 2.0 | 2.0 | 0.00 | 0.00 | 0.00 | 61 | 1010.0 |
| 20260509072850 | 43 | 124 | 2.0 | 3.0 | 0.00 | 0.00 | 0.00 | 61 | 1010.0 |
| 20260509072350 | 43 | 128 | 2.0 | 3.0 | 0.00 | 0.00 | 0.00 | 60 | 1010.0 |
| 20260509071849 | 43 | 134 | 2.0 | 3.0 | 0.00 | 0.00 | 0.00 | 60 | 1010.0 |
| 20260509071350 | 43 | 123 | 2.0 | 3.0 | 0.00 | 0.00 | 0.00 | 60 | 1010.0 |
| 20260509070849 | 43 | 124 | 2.0 | 3.0 | 0.00 | 0.00 | 0.00 | 60 | 1010.0 |
| 20260509070349 | 43 | 123 | 2.0 | 3.0 | 0.00 | 0.00 | 0.00 | 60 | 1010.0 |
| 20260509065849 | 43 | 124 | 1.0 | 2.0 | 0.00 | 0.00 | 0.00 | 59 | 1010.0 |
| 20260509065349 | 44 | 126 | 2.0 | 3.0 | 0.00 | 0.00 | 0.00 | 60 | 1010.0 |
| 20260509064849 | 44 | 121 | 1.0 | 2.0 | 0.00 | 0.00 | 0.00 | 60 | 1010.0 |
| 20260509064349 | 44 | 131 | 2.0 | 4.0 | 0.00 | 0.00 | 0.00 | 59 | 1010.0 |
| 20260509063850 | 44 | 134 | 2.0 | 3.0 | 0.00 | 0.00 | 0.00 | 59 | 1010.0 |
| 20260509063349 | 44 | 141 | 2.0 | 4.0 | 0.00 | 0.00 | 0.00 | 58 | 1010.0 |
| 20260509062850 | 44 | 144 | 2.0 | 4.0 | 0.00 | 0.00 | 0.00 | 58 | 1010.0 |
| 20260509062350 | 44 | 145 | 2.0 | 3.0 | 0.00 | 0.00 | 0.00 | 57 | 1010.0 |
| 20260509061851 | 43 | 147 | 2.0 | 4.0 | 0.00 | 0.00 | 0.00 | 57 | 1010.0 |
| 20260509061350 | 43 | 150 | 3.0 | 4.0 | 0.00 | 0.00 | 0.00 | 57 | 1010.0 |
| 20260509060849 | 42 | 137 | 2.0 | 4.0 | 0.00 | 0.00 | 0.00 | 57 | 1010.0 |
| 20260509060350 | 42 | 129 | 2.0 | 4.0 | 0.00 | 0.00 | 0.00 | 58 | 1010.0 |
| 20260509055849 | 42 | 132 | 2.0 | 4.0 | 0.00 | 0.00 | 0.00 | 57 | 1010.0 |
| 20260509055349 | 42 | 130 | 2.0 | 3.0 | 0.00 | 0.00 | 0.00 | 57 | 1010.0 |
| 20260509054849 | 42 | 131 | 2.0 | 3.0 | 0.00 | 0.00 | 0.00 | 56 | 1011.0 |
| 20260509054349 | 42 | 141 | 2.0 | 4.0 | 0.00 | 0.00 | 0.00 | 56 | 1011.0 |
| 20260509053849 | 42 | 132 | 2.0 | 4.0 | 0.00 | 0.00 | 0.00 | 57 | 1011.0 |
| 20260509053349 | 42 | 140 | 3.0 | 4.0 | 0.00 | 0.00 | 0.00 | 57 | 1011.0 |
| 20260509052849 | 42 | 137 | 3.0 | 4.0 | 0.00 | 0.00 | 0.00 | 56 | 1011.0 |
| 20260509052350 | 42 | 140 | 3.0 | 4.0 | 0.00 | 0.00 | 0.00 | 56 | 1011.0 |
| 20260509051849 | 42 | 136 | 3.0 | 4.0 | 0.00 | 0.00 | 0.00 | 57 | 1011.0 |
| 20260509051349 | 42 | 138 | 3.0 | 4.0 | 0.00 | 0.00 | 0.00 | 57 | 1011.0 |
| 20260509050849 | 41 | 137 | 3.0 | 4.0 | 0.00 | 0.00 | 0.00 | 58 | 1011.0 |
| 20260509050349 | 41 | 137 | 3.0 | 4.0 | 0.00 | 0.00 | 0.00 | 60 | 1011.0 |
| 20260509045849 | 41 | 126 | 3.0 | 4.0 | 0.00 | 0.00 | 0.00 | 61 | 1011.0 |
| 20260509045349 | 41 | 133 | 2.0 | 3.0 | 0.00 | 0.00 | 0.00 | 60 | 1011.0 |
| 20260509044849 | 41 | 142 | 2.0 | 3.0 | 0.00 | 0.00 | 0.00 | 60 | 1011.0 |
| 20260509044349 | 40 | 135 | 2.0 | 3.0 | 0.00 | 0.00 | 0.00 | 62 | 1011.0 |
| 20260509043850 | 40 | 134 | 2.0 | 3.0 | 0.00 | 0.00 | 0.00 | 62 | 1011.0 |
| 20260509043349 | 41 | 131 | 2.0 | 3.0 | 0.00 | 0.00 | 0.00 | 62 | 1011.0 |
| 20260509042849 | 41 | 131 | 3.0 | 3.0 | 0.00 | 0.00 | 0.00 | 61 | 1011.0 |
| 20260509042349 | 41 | 147 | 3.0 | 4.0 | 0.00 | 0.00 | 0.00 | 61 | 1011.0 |
| 20260509041849 | 41 | 148 | 3.0 | 4.0 | 0.00 | 0.00 | 0.00 | 61 | 1011.0 |
| 20260509041349 | 40 | 149 | 3.0 | 4.0 | 0.00 | 0.00 | 0.00 | 61 | 1011.0 |
| 20260509040849 | 40 | 160 | 2.0 | 3.0 | 0.00 | 0.00 | 0.00 | 61 | 1011.0 |
| 20260509040350 | 39 | 143 | 2.0 | 3.0 | 0.00 | 0.00 | 0.00 | 63 | 1011.0 |
| 20260509035850 | 39 | 134 | 2.0 | 2.0 | 0.00 | 0.00 | 0.00 | 66 | 1011.0 |
| 20260509035349 | 39 | 123 | 2.0 | 3.0 | 0.00 | 0.00 | 0.00 | 67 | 1011.0 |
| 20260509034849 | 39 | 126 | 2.0 | 3.0 | 0.00 | 0.00 | 0.00 | 65 | 1011.0 |
| 20260509034349 | 40 | 125 | 2.0 | 4.0 | 0.00 | 0.00 | 0.00 | 64 | 1011.0 |
| 20260509033850 | 40 | 123 | 2.0 | 3.0 | 0.00 | 0.00 | 0.00 | 63 | 1011.0 |
| 20260509033349 | 40 | 153 | 3.0 | 3.0 | 0.00 | 0.00 | 0.00 | 61 | 1011.0 |
| 20260509032849 | 40 | 146 | 2.0 | 3.0 | 0.00 | 0.00 | 0.00 | 61 | 1011.0 |
| 20260509032349 | 39 | 155 | 3.0 | 4.0 | 0.00 | 0.00 | 0.00 | 61 | 1011.0 |
| 20260509031849 | 38 | 163 | 2.0 | 3.0 | 0.00 | 0.00 | 0.00 | 63 | 1011.0 |
| 20260509031349 | 38 | 156 | 2.0 | 3.0 | 0.00 | 0.00 | 0.00 | 68 | 1011.0 |
| 20260509030849 | 38 | 125 | 2.0 | 2.0 | 0.00 | 0.00 | 0.00 | 73 | 1011.0 |
| 20260509030349 | 39 | 120 | 2.0 | 3.0 | 0.00 | 0.00 | 0.00 | 69 | 1011.0 |
| 20260509025849 | 39 | 119 | 2.0 | 2.0 | 0.00 | 0.00 | 0.00 | 67 | 1011.0 |
| 20260509025349 | 39 | 128 | 2.0 | 2.0 | 0.00 | 0.00 | 0.00 | 69 | 1011.0 |
| 20260509024850 | 40 | 114 | 3.0 | 3.0 | 0.00 | 0.00 | 0.00 | 67 | 1011.0 |
| 20260509024349 | 40 | 97 | 3.0 | 4.0 | 0.00 | 0.00 | 0.00 | 67 | 1011.0 |
| 20260509023849 | 40 | 104 | 3.0 | 4.0 | 0.00 | 0.00 | 0.00 | 66 | 1011.0 |
| 20260509023349 | 40 | 111 | 4.0 | 5.0 | 0.00 | 0.00 | 0.00 | 65 | 1011.0 |
| 20260509022849 | 40 | 115 | 2.0 | 4.0 | 0.00 | 0.00 | 0.00 | 66 | 1011.0 |
| 20260509022349 | 39 | 97 | 3.0 | 4.0 | 0.00 | 0.00 | 0.00 | 69 | 1011.0 |
| 20260509021853 | 39 | 95 | 3.0 | 3.0 | 0.00 | 0.00 | 0.00 | 72 | 1012.0 |
| 20260509021349 | 39 | 117 | 1.0 | 2.0 | 0.00 | 0.00 | 0.00 | 72 | 1012.0 |
| 20260509020849 | 39 | 128 | 1.0 | 2.0 | 0.00 | 0.00 | 0.00 | 72 | 1012.0 |
| 20260509020349 | 39 | 116 | 2.0 | 3.0 | 0.00 | 0.00 | 0.00 | 73 | 1012.0 |
| 20260509015849 | 39 | 114 | 2.0 | 3.0 | 0.00 | 0.00 | 0.00 | 71 | 1012.0 |
| 20260509015349 | 39 | 95 | 3.0 | 4.0 | 0.00 | 0.00 | 0.00 | 73 | 1011.0 |
| 20260509014850 | 39 | 87 | 2.0 | 3.0 | 0.00 | 0.00 | 0.00 | 73 | 1011.0 |
| 20260509014350 | 40 | 88 | 2.0 | 3.0 | 0.00 | 0.00 | 0.00 | 74 | 1011.0 |
| 20260509013849 | 40 | 105 | 2.0 | 3.0 | 0.00 | 0.00 | 0.00 | 74 | 1011.0 |
| 20260509013349 | 40 | 109 | 2.0 | 3.0 | 0.00 | 0.00 | 0.00 | 72 | 1011.0 |
| 20260509012849 | 40 | 86 | 2.0 | 2.0 | 0.00 | 0.00 | 0.00 | 73 | 1011.0 |
| 20260509012350 | 40 | 84 | 2.0 | 3.0 | 0.00 | 0.00 | 0.00 | 73 | 1011.0 |
| 20260509011850 | 40 | 91 | 2.0 | 3.0 | 0.00 | 0.00 | 0.00 | 72 | 1011.0 |